Regional Weather Roundup
Issued by NWS

Home | Current Version | Previous Version | Text Only | Print | Product List | Glossary Off
Versions: 1 2 3 4 5 6 7 8 9 10 11 12 13 14 15 16 17 18 19 20 21 22 23 24 25 26 27 28 29 30 31 32 33 34 35 36 37 38 39 40 41 42 43 44 45 46 47 48 49 50

000
ASUS43 KFSD 050510
RWRSD

WEATHER ROUNDUP FOR SOUTH DAKOTA
NATIONAL WEATHER SERVICE SIOUX FALLS SD
1200 AM CDT WED AUG 05 2015

NOTE: "FAIR" INDICATES FEW OR NO CLOUDS BELOW 12,000 FEET WITH NO
SIGNIFICANT WEATHER AND/OR OBSTRUCTIONS TO VISIBILITY.


SDZ001>005-009-010-012>017-050600-
NORTHWEST AND NORTH CENTRAL SOUTH DAKOTA

CITY           SKY/WX    TMP DP  RH WIND       PRES   REMARKS
BUFFALO          N/A     63  61  93 NE17G29   29.94F
FAITH            N/A     71  56  58 SE14      29.97R
MOBRIDGE       MOCLDY    70  62  76 SE9       29.97R
$$

SDZ012>016-024>037-041>051-057-063-072>074-050600-
SOUTHWEST AND SOUTH CENTRAL SOUTH DAKOTA

CITY           SKY/WX    TMP DP  RH WIND       PRES   REMARKS
RAPID CTY ARPT CLOUDY    67  60  78 SE6       29.99R
PIERRE         PTCLDY    70  62  76 SE9       29.98R
CUSTER         CLOUDY    60  54  80 S5        30.13S
ELLSWORTH AFB  CLOUDY    71  60  67 VRB5      29.99R
PHILIP         PTCLDY    71  66  84 SE7       29.97R
PINE RIDGE     MOCLDY    69  58  67 S8G17     30.02S
WINNER         FAIR      68  64  87 SE3       30.00S
$$

SDZ004>011-016>023-039-040-050600-
NORTHEAST SOUTH DAKOTA

CITY           SKY/WX    TMP DP  RH WIND       PRES   REMARKS
ABERDEEN       PTCLDY    63  56  78 E8        30.01S
WATERTOWN      MOCLDY    66  54  65 SE5       30.04R
BROOKINGS      MOCLDY    64  57  77 E7        30.06S
SISSETON         N/A     58  55  90 CALM      30.03R
$$

SDZ017-020-022-023-036>040-048>070-050600-
SOUTHEAST SOUTH DAKOTA

CITY           SKY/WX    TMP DP  RH WIND       PRES   REMARKS
SIOUX FALLS    CLOUDY    67  60  78 E7        30.02S
HURON          MOCLDY     1  32 100 SE7       30.00R WCI -12
CHAMBERLAIN    MOCLDY    66  63  90 SE7       30.00S
MITCHELL       MOCLDY    67  64  90 SE6       30.01R
YANKTON        CLOUDY    66  64  94 SE5       29.99S
$$

ABBREVIATIONS USED IN REMARKS
   TC - TEMPERATURE IN CELSIUS
  WCI - WIND CHILL INDEX
   HX - HEAT INDEX
  VSB - VISIBILITY



USA.gov is the U.S. government's official web portal to all federal, state and local government web resources and services.